[[{"header":{"parameterUnit":"m.s-1","parameterCategory":1,"la1":30.2991,"la2":30.254,"lo1":-89.0895,"lo2":-89.0444,"dy":0.0017,"dx":0.0017,"nx":28,"ny":28,"refTime":"2024-03-17T21:00:00:Z","depth":0,"parameterNumber":2,"parameterNumberName":"U-component_of_WINDS"},"data":[0,0,0,0,0,0,0,0,0,0,0,0,0,0,0,0,0,0,0,0,0,0,0,0,0,0,0,0,0,0,0,0,0,0,0,0,0,0,0,0,0,0,0,0,0,0,0,0,0,0,0,0,0,0,0,0,0,0,3.0222,3.0223,0,3.0295,3.0296,3.0297,3.0287,3.0286,3.0284,3.0283,3.0358,3.0361,3.0364,0,0,0,0,0,0,0,0,0,0,0,0,0,3.0075,3.0078,3.0222,3.0223,3.0224,3.0295,3.0296,3.0297,3.0287,3.0286,3.0284,3.0283,3.0357,3.0361,3.0365,0,0,0,0,0,0,0,0,0,0,0,0,0,3.0143,3.0079,3.0222,3.0228,3.0229,3.0295,3.0296,3.0297,3.0287,3.0285,3.0284,3.0282,3.0356,3.036,3.0365,3.043,0,0,3.0379,3.0381,0,0,0,0,0,0,0,0,3.0139,3.0148,3.0226,3.0227,3.0229,3.028,3.0272,3.0342,3.0288,3.0265,3.0283,3.0281,3.0334,3.034,3.0358,3.0434,3.0437,3.038,3.0383,3.0385,3.0386,0,0,0,0,0,0,0,3.0134,3.0145,3.0251,3.0227,3.0229,3.0227,3.0234,3.0285,3.0309,3.0267,3.0266,3.0275,3.0334,3.0353,3.0359,3.0438,3.038,3.0384,3.0387,3.0389,3.0574,3.0576,0,0,0,0,0,0,3.0128,3.0141,3.0249,3.0253,3.0178,3.0231,3.0239,3.0265,3.0308,3.0313,3.0277,3.0274,3.0346,3.0354,3.0362,3.0442,3.0385,3.0389,3.0392,3.0572,3.0574,3.0576,0,0,0,0,0,0,3.0125,3.0138,3.0246,3.0197,3.0211,3.0235,3.0265,3.0268,3.0287,3.0315,3.032,3.0292,3.0345,3.0355,3.0414,3.0445,3.0391,3.0395,3.0569,3.0572,3.0575,3.0603,0,0,0,0,0,0,3.0121,3.0137,3.0161,3.0198,3.0213,3.0296,3.0267,3.0271,3.0295,3.0293,3.0331,3.0335,3.0344,3.0407,3.0419,3.045,3.0399,3.0566,3.0571,3.0574,3.0599,3.0606,3.0612,0,0,0,0,0,3.0116,3.0166,3.0163,3.0176,3.0245,3.0298,3.0307,3.0316,3.0298,3.0323,3.0342,3.0334,3.044,3.0413,3.0426,3.0459,3.0565,3.0569,3.0574,3.0596,3.0605,3.0612,0,0,0,0,0,0,3.0132,3.0171,3.0167,3.0231,3.0261,3.0296,3.0328,3.0325,3.0361,3.0358,3.0368,3.0377,3.0436,3.0454,3.0423,3.0526,3.05,3.0507,3.0512,3.0521,3.0527,3.0521,3.0403,0,0,0,0,0,3.0143,3.0183,3.0214,3.0267,3.0283,3.0303,3.0326,3.0331,3.0363,3.0376,3.0398,3.043,3.047,3.0496,3.0535,3.0602,3.0611,3.0632,3.0638,3.0644,3.065,3.0688,3.0698,3.0592,3.0592,3.0592,0,0,3.0166,3.0192,3.0216,3.0271,3.0295,3.0337,3.0314,3.0358,3.0389,3.0382,3.0439,3.0457,3.0493,3.0556,3.0585,3.0573,3.0681,3.065,3.0654,3.0657,3.0694,3.0704,3.0712,3.0595,3.0595,3.0594,0,0,3.0229,3.0253,3.03,3.0325,3.0362,3.0375,3.0386,3.0422,3.0434,3.0491,3.0488,3.0525,3.0594,3.062,3.0642,3.0718,3.0712,3.073,3.0765,3.0802,3.081,3.0817,3.0845,3.0854,3.0736,3.0736,3.0736,0,3.0253,3.0314,3.0324,3.037,3.0394,3.0391,3.0439,3.0463,3.0511,3.0528,3.0514,3.0602,3.0625,3.0695,3.0714,3.0732,3.0746,3.0725,3.0808,3.0815,3.0823,3.0849,3.0859,3.0738,3.0738,3.0738,3.0738,0,3.0342,3.0386,3.0419,3.0466,3.0495,3.0541,3.0559,3.0587,3.059,3.0605,3.0664,3.0693,3.0738,3.0755,3.0758,3.0826,3.0817,3.0805,3.0779,3.0834,3.0859,3.0869,3.0741,3.074,3.074,3.0739,0,0,3.0416,3.0469,3.0481,3.0503,3.0544,3.0578,3.0625,3.0669,3.0694,3.0727,3.0767,3.0827,3.0817,3.0842,3.0848,3.0881,3.094,3.0865,3.0866,3.0878,3.1017,3.1025,3.1037,3.0937,3.0939,3.094,3.1014,0,3.0483,3.0566,3.0577,3.0651,3.0691,3.069,3.0731,3.0762,3.0778,3.0815,3.0833,3.0875,3.0858,3.0874,3.0906,3.0926,3.0968,3.0921,3.0975,3.0977,3.0965,3.105,3.1058,3.1126,3.1024,3.1026,3.1027,0,3.0572,3.0608,3.0686,3.0724,3.0741,3.0778,3.082,3.0856,3.0891,3.09,3.093,3.0932,3.0982,3.0955,3.1024,3.0992,3.1015,3.1028,3.1031,3.1036,3.1004,3.1057,3.1148,3.1158,3.1042,3.1041,3.104,0,3.0618,3.0687,3.0743,3.0761,3.0806,3.0832,3.0852,3.0885,3.0912,3.0949,3.0967,3.1009,3.1033,3.1066,3.1081,3.1059,3.1149,3.1123,3.1159,3.1159,3.1177,3.1176,3.1273,3.1193,3.1193,3.1192,3.1192,0,3.0691,3.0739,3.0764,3.0798,3.0852,3.0865,3.0918,3.0938,3.0968,3.1006,3.1008,3.1044,3.1061,3.1101,3.1113,3.1169,3.1179,3.1189,3.1191,3.1188,3.1187,3.1203,3.1199,3.1195,3.1195,3.1194,3.1194,0,3.0751,3.077,3.0831,3.0869,3.088,3.0918,3.0951,3.0984,3.1001,3.105,3.1062,3.1088,3.1134,3.1153,3.1209,3.1217,3.1282,3.1281,3.127,3.1271,3.1306,3.1302,3.1417,3.1433,3.1342,3.1343,3.1344,0,3.0797,3.0833,3.0876,3.0902,3.0923,3.0965,3.0992,3.1007,3.1035,3.1079,3.1108,3.1154,3.1192,3.1267,3.1291,3.1335,3.1335,3.1372,3.1341,3.1337,3.1335,3.1333,3.1337,3.1377,3.1378,3.1379,3.1379,0,3.0875,3.0883,3.0922,3.0965,3.0998,3.1032,3.1066,3.1087,3.1108,3.114,3.1187,3.1217,3.1276,3.1322,3.1367,3.1389,3.1388,3.1389,3.14,3.1397,3.1389,3.1394,3.1285,3.1386,3.1386,3.1385,3.1385,3.1384,3.0929,3.0962,3.0998,3.1042,3.1069,3.1101,3.1135,3.1156,3.1196,3.1244,3.1251,3.1303,3.1339,3.14,3.1423,3.1464,3.1454,3.147,3.1474,3.1477,3.148,3.1383,3.1472,3.1472,3.1472,3.1472,3.1472,0,3.1008,3.1031,3.1071,3.1119,3.1154,3.1151,3.1188,3.1218,3.1263,3.1296,3.1334,3.139,3.1435,3.1464,3.151,3.1537,3.1538,3.1549,3.1547,3.1552,3.1485,3.1472,3.1547,3.1547,3.1547,3.1547,3.1547,3.1547,3.1053,3.1109,3.1121,3.1191,3.1214,3.1264,3.1286,3.1316,3.1343,3.1405,3.1443,3.1462,3.1494,3.1543,3.1585,3.1592,3.1609,3.162,3.1627,3.1564,3.1556,3.1549,3.1536,3.1624,3.1624,3.169,3.169,3.1691]},{"header":{"parameterUnit":"m.s-1","parameterCategory":1,"la1":30.2991,"la2":30.254,"lo1":-89.0895,"lo2":-89.0444,"dy":0.0017,"dx":0.0017,"nx":28,"ny":28,"refTime":"2024-03-17T21:00:00:Z","depth":0,"parameterNumber":3,"parameterNumberName":"V-component_of_WINDS"},"data":[0,0,0,0,0,0,0,0,0,0,0,0,0,0,0,0,0,0,0,0,0,0,0,0,0,0,0,0,0,0,0,0,0,0,0,0,0,0,0,0,0,0,0,0,0,0,0,0,0,0,0,0,0,0,0,0,0,0,-8.3292,-8.3294,0,-8.3471,-8.3473,-8.3475,-8.3415,-8.3411,-8.3407,-8.3404,-8.3583,-8.3591,-8.3599,0,0,0,0,0,0,0,0,0,0,0,0,0,-8.2895,-8.2902,-8.3292,-8.3294,-8.3296,-8.3471,-8.3473,-8.3475,-8.3416,-8.3411,-8.3406,-8.3402,-8.358,-8.359,-8.36,0,0,0,0,0,0,0,0,0,0,0,0,0,-8.307,-8.2905,-8.3291,-8.3288,-8.3289,-8.347,-8.3473,-8.3476,-8.3417,-8.3411,-8.3405,-8.34,-8.3577,-8.3589,-8.3601,-8.3796,0,0,-8.364,-8.3645,0,0,0,0,0,0,0,0,-8.306,-8.3084,-8.3286,-8.3288,-8.329,-8.3415,-8.3399,-8.3583,-8.3418,-8.3368,-8.3403,-8.3397,-8.3531,-8.3547,-8.3593,-8.3804,-8.3812,-8.3641,-8.3648,-8.3654,-8.3657,0,0,0,0,0,0,0,-8.3048,-8.3076,-8.3362,-8.3289,-8.3291,-8.3276,-8.3294,-8.3433,-8.348,-8.3372,-8.3368,-8.339,-8.3531,-8.3581,-8.3597,-8.3814,-8.364,-8.3652,-8.3659,-8.3664,-8.4194,-8.42,0,0,0,0,0,0,-8.3035,-8.3067,-8.3357,-8.3368,-8.3158,-8.3288,-8.3308,-8.3381,-8.3478,-8.3488,-8.3395,-8.3387,-8.3563,-8.3583,-8.3603,-8.3838,-8.3654,-8.3666,-8.3673,-8.4187,-8.4195,-8.4202,0,0,0,0,0,0,-8.3027,-8.3062,-8.335,-8.3216,-8.3252,-8.3301,-8.3382,-8.3387,-8.3437,-8.3496,-8.3503,-8.3438,-8.3559,-8.3585,-8.3749,-8.3843,-8.3671,-8.3683,-8.418,-8.419,-8.4199,-8.4308,0,0,0,0,0,0,-8.3016,-8.3059,-8.3134,-8.3219,-8.3259,-8.3494,-8.3388,-8.3395,-8.346,-8.3451,-8.3538,-8.3547,-8.3556,-8.373,-8.3761,-8.3857,-8.3692,-8.4171,-8.4184,-8.4196,-8.4297,-8.4321,-8.4341,0,0,0,0,0,-8.3002,-8.3157,-8.3138,-8.3174,-8.3354,-8.3499,-8.3522,-8.3531,-8.3468,-8.3543,-8.3581,-8.3544,-8.3828,-8.3747,-8.3782,-8.3883,-8.4165,-8.418,-8.4195,-8.4287,-8.4316,-8.4341,0,0,0,0,0,0,-8.308,-8.3168,-8.3148,-8.3335,-8.3411,-8.3489,-8.3584,-8.3562,-8.3655,-8.3643,-8.3648,-8.3668,-8.3836,-8.3876,-8.3785,-8.4077,-8.3987,-8.4009,-8.4045,-8.4074,-8.4096,-8.4083,-8.3703,0,0,0,0,0,-8.312,-8.3231,-8.3301,-8.3459,-8.3498,-8.3535,-8.3598,-8.3599,-8.3676,-8.3707,-8.3757,-8.3832,-8.3938,-8.4008,-8.4109,-8.4302,-8.432,-8.4388,-8.4411,-8.4429,-8.4448,-8.4554,-8.4585,-8.425,-8.425,-8.425,0,0,-8.3202,-8.3263,-8.3333,-8.3477,-8.3535,-8.365,-8.3562,-8.3686,-8.3771,-8.3726,-8.3883,-8.3923,-8.4007,-8.4186,-8.4268,-8.4224,-8.4545,-8.4448,-8.4462,-8.4471,-8.4572,-8.4604,-8.4632,-8.426,-8.4258,-8.4257,0,0,-8.341,-8.3468,-8.3607,-8.3667,-8.3757,-8.3781,-8.3814,-8.3897,-8.3922,-8.408,-8.4049,-8.4149,-8.4331,-8.4393,-8.4448,-8.4681,-8.4651,-8.4714,-8.4831,-8.4934,-8.496,-8.4983,-8.5067,-8.5097,-8.4732,-8.4733,-8.4733,0,-8.35,-8.3673,-8.368,-8.3809,-8.3873,-8.3838,-8.3979,-8.4036,-8.4154,-8.4199,-8.4149,-8.4378,-8.4432,-8.4626,-8.4683,-8.4729,-8.4767,-8.4704,-8.4956,-8.4979,-8.5001,-8.5081,-8.5112,-8.474,-8.4739,-8.4738,-8.4738,0,-8.378,-8.39,-8.4001,-8.4118,-8.4193,-8.4326,-8.4353,-8.4429,-8.4423,-8.4451,-8.4613,-8.4678,-8.4791,-8.4837,-8.4831,-8.503,-8.5001,-8.4954,-8.4864,-8.504,-8.5115,-8.5146,-8.475,-8.4747,-8.4745,-8.4744,0,0,-8.4042,-8.4163,-8.42,-8.4252,-8.435,-8.4442,-8.4574,-8.4686,-8.4751,-8.4833,-8.4944,-8.5099,-8.5057,-8.512,-8.5121,-8.5211,-8.5392,-8.5153,-8.5155,-8.5195,-8.5615,-8.5651,-8.5686,-8.5373,-8.5379,-8.5383,-8.5608,0,-8.4259,-8.4492,-8.4503,-8.4715,-8.4826,-8.4795,-8.491,-8.4982,-8.5012,-8.511,-8.5142,-8.5253,-8.5188,-8.5226,-8.5314,-8.5352,-8.5477,-8.5335,-8.5475,-8.548,-8.5455,-8.5725,-8.5763,-8.5972,-8.5638,-8.5643,-8.5646,0,-8.4543,-8.4636,-8.486,-8.4942,-8.4989,-8.5092,-8.5197,-8.5291,-8.5371,-8.5387,-8.5458,-8.5446,-8.558,-8.5486,-8.567,-8.5574,-8.5631,-8.5658,-8.5667,-8.568,-8.5574,-8.5746,-8.6039,-8.6071,-8.5692,-8.5689,-8.5685,0,-8.4713,-8.4894,-8.5052,-8.5098,-8.5197,-8.5271,-8.5315,-8.539,-8.5457,-8.5548,-8.5592,-8.5697,-8.5754,-8.5835,-8.5851,-8.5781,-8.6036,-8.5943,-8.6052,-8.6052,-8.6107,-8.6104,-8.6414,-8.6144,-8.6144,-8.6143,-8.6142,0,-8.4954,-8.5092,-8.513,-8.5226,-8.538,-8.5391,-8.5542,-8.5581,-8.5648,-8.5752,-8.573,-8.5827,-8.5843,-8.5944,-8.5957,-8.6108,-8.6134,-8.615,-8.6152,-8.6152,-8.615,-8.619,-8.6176,-8.6151,-8.615,-8.6148,-8.6146,0,-8.517,-8.5201,-8.537,-8.5452,-8.5475,-8.5585,-8.5653,-8.5746,-8.5774,-8.5905,-8.5936,-8.598,-8.6097,-8.6122,-8.626,-8.6269,-8.6449,-8.6436,-8.6422,-8.6421,-8.653,-8.6519,-8.6877,-8.6924,-8.6623,-8.6626,-8.6628,0,-8.5322,-8.5428,-8.5521,-8.559,-8.5638,-8.5749,-8.5818,-8.5832,-8.5905,-8.6005,-8.6085,-8.6201,-8.6294,-8.6482,-8.6525,-8.6631,-8.6621,-8.6739,-8.6636,-8.6634,-8.6623,-8.6617,-8.6628,-8.6759,-8.6762,-8.6764,-8.6767,0,-8.5589,-8.56,-8.5701,-8.5808,-8.5892,-8.5977,-8.6057,-8.6114,-8.6139,-8.6222,-8.6343,-8.6415,-8.6557,-8.6672,-8.6778,-8.6822,-8.6799,-8.6799,-8.683,-8.6831,-8.6819,-8.6828,-8.6476,-8.679,-8.6788,-8.6786,-8.6785,-8.6784,-8.5779,-8.5871,-8.5952,-8.6065,-8.6128,-8.6204,-8.6295,-8.6336,-8.6437,-8.6555,-8.6557,-8.6689,-8.6766,-8.6907,-8.6958,-8.706,-8.7023,-8.7068,-8.7079,-8.709,-8.71,-8.6803,-8.7079,-8.7078,-8.7078,-8.7077,-8.7077,0,-8.6045,-8.6095,-8.62,-8.6314,-8.6404,-8.6376,-8.6464,-8.654,-8.6657,-8.6732,-8.6824,-8.6963,-8.7074,-8.7127,-8.7236,-8.7308,-8.73,-8.7337,-8.7331,-8.7342,-8.7127,-8.709,-8.7341,-8.7341,-8.7341,-8.7341,-8.7341,-8.7341,-8.6194,-8.635,-8.637,-8.6557,-8.6605,-8.6736,-8.6789,-8.6858,-8.6918,-8.7075,-8.7168,-8.7202,-8.7268,-8.7383,-8.7483,-8.7495,-8.7537,-8.7578,-8.7586,-8.7384,-8.7357,-8.7332,-8.7296,-8.7587,-8.7588,-8.7792,-8.7794,-8.7796]}]]